Theta_e
318 319 321 324 326 324 324 327 330 330 330 328 331 329 328 328 329 341 336 336 338 337 335 336 333 333 332 332 332 336 336 337 336 334 332 333 332 330 330 330 329 330 329 329 328 329 330 329 329
318 319 323 324 326 321 321 324 328 326 325 330 329 327 326 335 335 336 336 336 335 334 334 333 330 326 329 332 332 336 337 337 336 334 332 332 332 332 330 331 330 330 329 330 330 332 329 327 327
318 318 324 324 326 322 320 322 326 327 325 325 327 327 326 332 335 336 336 335 334 334 335 333 330 330 330 332 334 336 336 336 335 333 331 332 331 331 329 331 328 330 329 329 329 331 327 326 326
320 322 322 324 323 321 320 321 325 327 323 322 326 326 330 332 335 336 335 334 333 337 337 332 332 330 327 331 333 336 337 335 333 332 331 331 331 330 326 329 331 330 329 330 331 326 325 325 324
319 323 324 325 323 319 319 322 323 325 323 323 323 325 332 334 335 336 334 333 335 337 337 335 329 323 321 326 332 334 335 335 333 331 330 330 331 329 327 325 328 327 327 330 329 325 324 324 323
321 323 323 325 322 320 321 323 324 324 321 322 322 324 332 334 336 335 334 334 336 338 336 335 328 326 326 325 331 334 334 332 330 330 329 329 330 327 328 325 328 329 326 327 326 324 323 322 322
321 323 325 323 321 321 321 322 322 320 320 321 324 323 331 334 336 334 333 335 337 336 335 334 332 329 328 328 329 331 333 332 328 326 325 326 327 328 326 325 329 329 326 325 324 324 322 321 321
321 323 324 323 321 321 321 320 320 320 320 322 325 322 329 334 335 333 333 336 336 336 336 334 332 332 332 330 328 328 329 329 327 325 323 323 323 326 325 322 326 326 325 324 324 323 322 321 321
319 322 324 322 320 321 320 320 319 318 320 323 323 324 329 335 335 332 333 335 336 336 336 337 335 333 333 332 329 328 327 328 328 326 321 324 325 325 325 325 324 325 324 324 324 325 323 321 321
320 324 323 321 320 320 321 320 319 318 319 320 322 326 334 335 335 333 333 335 336 336 336 337 336 335 334 332 331 331 331 330 330 329 324 326 325 324 325 324 324 324 323 323 322 323 320 322 322
320 323 321 318 317 319 320 319 319 319 319 319 320 324 334 335 334 334 333 333 335 336 336 336 337 335 334 333 333 332 331 331 331 330 327 325 325 323 324 325 323 323 322 322 321 319 322 322 323
318 317 318 316 316 318 319 318 318 319 318 317 318 321 330 334 334 333 333 333 333 335 336 335 336 335 335 334 333 333 332 331 330 330 328 325 325 324 324 325 325 325 323 324 323 322 322 323 323
318 316 316 315 315 317 317 318 318 318 317 315 315 320 327 331 332 332 332 332 333 334 334 335 335 335 335 335 334 333 333 332 331 330 328 326 325 325 325 325 325 325 324 323 323 322 322 322 322
317 317 316 315 315 314 317 316 315 315 314 314 314 319 323 328 330 331 331 332 333 333 334 335 335 334 334 333 333 333 333 333 332 330 329 327 326 325 325 325 325 325 324 323 322 322 322 321 321
316 316 315 315 315 315 314 315 315 313 312 314 314 317 320 324 328 331 332 332 333 334 334 335 335 334 333 332 332 333 332 331 331 331 330 328 326 325 324 325 324 324 324 322 320 321 320 321 321
315 316 317 314 314 314 313 317 315 312 312 313 314 315 317 321 327 329 330 332 332 333 334 335 335 334 332 333 332 332 332 331 330 330 330 329 327 326 325 324 324 324 323 322 318 320 320 319 319
315 316 316 313 314 315 313 316 312 313 313 313 314 314 314 315 318 325 329 331 331 332 333 335 335 333 332 332 332 332 331 331 331 330 330 328 328 327 326 325 324 323 321 320 319 318 318 317 317
315 315 314 315 313 313 314 314 314 313 314 315 315 315 315 314 314 313 314 322 329 331 332 334 335 335 332 332 332 331 332 331 331 331 329 329 328 328 327 326 325 323 321 319 319 318 318 316 316
315 314 313 313 313 314 315 314 314 314 314 315 315 315 314 313 311 308 308 309 310 320 330 332 333 335 333 331 332 331 332 331 331 331 330 330 329 329 328 327 326 325 322 321 320 319 318 317 316
313 313 313 313 312 314 315 314 314 313 313 312 313 313 312 312 312 311 311 309 308 309 317 326 330 332 334 332 331 331 331 331 331 330 330 330 330 329 329 329 328 327 326 325 324 320 319 318 317
312 312 313 313 312 312 313 313 314 310 311 312 312 311 312 313 313 313 313 313 312 309 310 316 324 329 331 332 330 330 330 330 330 329 329 329 329 329 328 329 328 328 327 326 326 323 321 318 318
312 312 313 314 313 312 312 312 314 312 313 314 314 314 313 313 313 313 312 312 313 313 309 308 315 321 325 329 330 328 327 328 327 328 327 328 327 327 327 328 328 328 327 327 327 326 323 320 318
312 312 314 314 315 313 313 312 314 311 314 314 314 314 313 313 312 311 311 311 311 313 316 313 312 315 319 323 326 327 326 326 326 326 327 328 327 327 327 326 327 327 327 327 326 326 324 322 319
311 313 313 314 315 312 313 312 313 311 313 315 314 313 312 312 311 310 310 310 310 310 311 312 315 319 320 320 323 324 324 324 323 322 322 323 323 324 325 326 327 325 326 326 326 326 324 323 321
312 312 313 312 314 312 309 312 312 310 314 315 314 313 312 312 312 312 311 310 310 309 309 309 309 310 310 311 313 315 318 318 318 317 318 318 319 319 320 320 320 321 321 322 322 322 322 321 321
313 313 315 316 315 313 308 312 312 311 313 314 313 312 312 312 311 311 310 309 308 308 308 307 307 307 307 307 307 308 308 309 309 309 309 310 310 310 308 309 311 313 314 314 314 316 317 317 317
312 312 312 312 309 315 312 311 310 309 312 313 312 312 313 312 311 310 309 308 307 306 306 306 305 305 305 305 304 304 304 304 304 304 304 304 304 303 304 304 305 306 307 308 309 311 311 311 312
311 311 310 312 321 320 311 312 312 310 313 312 312 313 313 311 310 309 308 307 306 306 305 304 304 303 303 303 303 302 302 302 302 302 302 302 302 302 302 302 302 303 303 303 305 306 307 309 309
310 310 310 311 314 320 315 312 311 312 313 313 313 314 312 311 310 309 307 306 306 305 304 303 302 301 301 301 301 300 300 299 299 299 299 299 299 299 299 300 300 301 301 301 301 301 302 303 304
311 311 311 313 314 311 315 315 311 312 312 314 313 313 312 311 309 308 307 306 305 303 302 301 299 299 298 298 298 297 297 297 296 296 296 296 296 296 297 297 297 298 298 298 298 298 299 299 301
Wind_Speed
7 6 5 6 6 5 4 5 2 5 6 3 5 5 9 10 8 4 12 9 15 16 16 13 12 12 13 13 12 12 14 14 14 14 14 15 16 16 16 17 19 18 18 18 18 18 20 20 18
5 5 4 4 5 6 6 6 6 5 7 6 3 1 1 10 10 11 12 13 17 17 16 12 11 11 13 13 12 11 14 15 14 14 14 14 16 16 16 16 16 17 16 16 16 15 18 17 16
5 4 7 3 4 1 6 7 9 8 4 3 2 2 3 5 9 13 14 19 18 16 13 12 11 11 13 13 13 12 15 14 14 13 14 14 15 14 16 15 12 14 15 15 14 15 16 15 15
4 5 4 7 5 4 2 8 10 9 3 1 2 6 6 6 12 8 20 20 17 13 12 12 10 10 11 12 13 13 15 13 11 12 13 14 14 14 13 13 14 14 14 14 13 13 13 13 12
5 4 6 4 3 3 2 7 9 9 7 5 2 5 7 6 9 16 22 20 17 13 13 11 10 10 11 12 13 11 11 12 13 12 13 13 13 13 10 11 13 9 13 11 13 11 10 10 9
5 5 6 8 6 5 5 7 7 6 4 5 3 4 8 9 11 19 21 18 15 14 13 11 10 10 10 12 13 11 9 9 10 10 12 12 12 12 10 13 9 10 12 11 11 8 8 9 8
10 8 9 6 8 7 6 8 8 6 6 4 3 3 6 11 13 20 20 17 15 14 13 10 10 10 10 10 11 11 9 8 8 9 11 11 12 12 9 11 11 11 8 7 7 6 7 7 7
4 6 4 7 9 5 9 9 3 6 6 4 3 4 8 15 17 20 20 17 16 14 12 11 10 10 9 9 9 9 9 7 7 7 9 9 9 10 9 8 11 7 6 5 4 6 6 4 5
4 6 7 8 8 9 12 9 3 3 6 3 3 6 7 19 20 22 20 17 17 14 13 12 11 10 9 8 9 9 9 8 7 6 7 10 6 6 8 5 10 7 5 3 2 5 6 4 4
5 6 9 4 3 11 14 9 10 7 8 6 7 8 14 18 20 23 22 21 21 18 15 13 12 11 10 9 8 7 7 6 5 5 7 5 5 5 5 6 9 7 6 4 3 4 6 6 2
6 9 6 4 4 8 12 7 7 6 7 7 10 11 15 17 18 20 20 20 21 20 18 16 15 14 12 10 9 8 7 6 6 6 6 5 5 6 5 5 5 4 5 2 1 4 2 1 1
8 2 2 4 3 5 11 9 7 6 7 7 5 14 15 16 18 19 18 19 19 19 19 17 15 16 14 12 12 10 9 8 8 9 9 7 6 7 6 6 6 6 5 4 4 4 3 3 3
7 7 5 7 5 5 5 6 3 6 8 7 7 7 12 13 16 17 18 17 18 18 18 17 17 16 15 14 12 12 11 10 9 9 10 8 7 7 7 7 7 7 6 6 5 5 5 5 6
5 8 9 6 7 4 5 3 1 3 3 5 6 8 10 12 16 15 17 19 19 20 19 18 18 17 16 17 14 13 12 11 11 10 10 11 9 8 8 8 8 7 7 7 7 7 7 7 8
12 7 6 6 5 3 1 3 7 7 3 5 8 8 8 11 15 16 17 18 18 19 18 19 18 17 17 17 20 16 14 15 14 11 11 12 11 10 9 8 9 9 9 10 9 9 9 9 10
7 8 8 6 6 3 3 5 8 2 7 8 7 8 7 8 13 15 14 16 17 17 18 18 17 19 20 19 19 20 19 16 15 16 13 13 12 12 11 11 11 11 13 14 14 12 12 13 13
8 10 14 6 5 4 7 5 6 2 4 7 7 6 6 8 9 12 15 15 16 17 18 19 18 18 20 21 20 20 20 19 16 16 15 17 14 13 13 12 12 14 18 18 18 18 20 18 18
13 15 9 12 8 6 8 10 5 6 3 6 5 5 6 6 6 6 10 14 16 17 18 18 18 18 19 21 20 20 21 22 20 16 16 16 19 21 20 16 14 16 17 19 22 24 22 21 20
16 14 10 8 3 6 12 10 9 6 5 7 6 3 3 3 2 2 5 7 10 15 18 19 19 19 18 21 20 21 22 23 23 23 21 21 21 21 22 25 24 18 19 21 23 24 22 24 24
10 14 9 5 3 4 5 11 10 3 4 1 4 5 2 2 2 2 1 1 6 11 14 17 18 18 18 20 22 18 16 20 24 25 27 25 24 24 23 24 26 26 29 30 27 26 26 25 23
10 14 12 4 6 1 2 8 12 4 4 3 2 2 2 2 5 4 5 4 2 4 10 13 16 17 17 16 14 17 17 13 13 17 20 23 24 24 26 26 27 28 30 31 31 30 31 26 25
9 2 10 11 11 5 3 4 8 8 6 4 5 4 5 7 7 7 9 9 8 6 2 7 10 12 13 14 14 14 14 14 14 13 16 18 20 20 22 23 25 25 28 30 31 32 32 29 24
4 9 9 9 5 1 6 5 5 8 8 6 6 7 6 7 9 9 11 11 11 11 11 10 8 7 6 8 10 8 9 10 9 9 11 11 13 16 16 19 22 25 26 29 30 32 32 33 31
16 12 11 6 3 5 10 8 8 8 11 11 9 9 9 8 9 11 11 13 14 14 15 15 16 14 11 8 6 3 2 3 5 7 9 10 12 13 13 13 17 22 25 28 29 32 33 35 35
10 15 5 6 5 5 3 4 4 7 6 12 15 13 10 10 9 9 11 13 14 15 15 16 17 18 16 15 13 10 7 5 4 4 5 7 7 9 10 12 13 16 18 22 23 23 25 30 33
14 16 6 7 6 6 3 7 2 8 6 13 13 14 11 9 8 9 11 13 14 15 16 17 18 19 17 17 16 15 13 11 9 9 8 7 8 8 10 11 11 13 14 16 18 20 21 22 25
12 8 4 6 1 2 6 5 4 8 11 14 14 13 12 11 9 10 12 13 14 15 16 16 17 17 17 16 16 16 15 14 12 12 11 10 10 12 13 13 13 13 14 16 16 18 21 21 24
8 12 4 3 6 4 7 8 7 15 18 17 17 16 14 11 10 10 12 12 12 13 14 15 15 16 14 15 14 15 14 13 12 12 13 14 13 15 15 16 16 17 17 17 17 19 20 19 21
4 6 5 4 3 4 4 5 3 20 22 22 19 17 15 13 12 10 12 12 11 11 12 13 13 14 13 13 13 15 15 14 14 14 15 16 17 18 19 20 20 20 21 20 21 21 22 22 23
5 10 13 5 5 2 2 3 4 8 20 19 18 15 15 13 12 12 13 13 11 11 11 12 12 13 13 13 13 15 14 15 15 17 18 19 19 20 20 22 22 22 23 23 24 24 24 23 23
Wind_Direction
348 313 316 263 239 253 121 150 94 133 142 60 58 344 37 27 7 37 136 131 137 143 146 131 139 132 133 133 128 123 123 111 104 95 99 102 96 92 91 92 90 86 84 84 85 89 88 88 90
302 318 259 274 255 195 135 129 172 98 81 103 109 211 176 82 66 117 131 141 137 135 138 136 145 134 127 129 133 126 126 119 103 98 102 107 99 95 96 97 90 83 86 90 91 87 89 93 95
295 290 276 268 284 172 130 174 124 108 107 145 140 339 2 76 104 129 126 143 140 137 136 146 142 138 137 134 128 125 130 118 109 107 109 113 106 96 97 95 88 94 91 97 89 88 92 96 96
272 209 219 250 171 68 57 162 128 144 143 176 317 96 104 40 131 116 143 143 143 137 132 135 143 138 137 142 131 122 127 123 117 112 112 115 109 101 107 101 95 101 90 103 92 94 94 99 101
232 264 233 238 153 117 141 142 156 173 140 153 197 106 80 107 112 129 145 147 146 139 135 137 143 142 137 141 144 130 131 125 117 114 114 115 114 109 103 119 95 98 107 103 99 92 93 97 96
214 256 225 204 171 143 140 153 171 172 137 113 196 126 85 131 134 141 147 147 145 141 139 141 144 140 137 139 145 142 139 129 121 118 116 114 118 116 102 120 113 117 109 102 105 102 95 104 105
247 217 231 197 157 164 153 164 174 166 150 144 47 130 103 153 141 148 148 148 147 143 144 141 143 146 143 140 144 150 150 138 126 122 119 125 129 135 128 125 98 110 107 112 128 122 109 113 108
262 244 218 209 182 139 148 166 167 172 121 105 2 151 154 148 150 153 152 151 154 156 154 153 152 148 146 145 151 152 156 150 137 128 130 132 130 142 136 117 119 112 113 116 147 141 141 139 120
284 211 213 183 197 144 157 163 170 90 135 124 102 42 94 145 153 155 159 160 161 169 167 164 163 162 158 153 161 159 162 157 143 130 128 103 119 121 112 148 131 128 125 131 123 118 143 132 132
235 223 205 158 109 157 169 186 154 168 147 155 145 112 130 151 165 166 172 173 175 176 177 178 175 175 169 164 164 162 166 157 151 142 138 140 139 144 159 145 147 146 143 134 146 173 125 103 112
204 211 114 136 82 143 161 165 157 168 177 158 178 156 159 168 181 182 185 184 185 182 182 186 182 182 183 181 176 177 181 180 180 173 170 168 160 160 147 159 157 163 158 154 130 122 112 188 190
182 94 116 125 104 160 167 142 170 199 85 76 109 156 169 181 187 194 196 194 192 192 192 191 189 188 191 190 189 192 193 194 192 193 189 183 176 178 182 183 185 186 189 196 185 193 197 191 205
212 137 106 112 130 159 119 174 98 187 127 118 107 165 177 191 196 199 201 204 198 200 201 199 196 197 197 199 199 201 203 205 205 202 203 196 197 196 196 199 197 198 200 203 203 204 207 210 217
139 138 122 134 131 114 181 148 266 100 139 197 165 170 187 200 200 196 204 204 205 208 207 204 204 204 204 204 202 206 208 211 210 211 214 208 206 208 207 206 208 210 212 214 215 216 218 224 229
146 115 141 155 134 117 280 210 215 126 149 156 201 182 188 195 198 205 206 210 209 212 211 209 208 210 209 210 215 212 223 220 216 219 220 218 213 216 216 219 221 220 219 217 217 222 228 235 242
160 174 181 151 176 129 225 239 134 163 203 203 179 191 187 199 207 205 207 213 212 213 213 210 206 210 213 215 220 225 226 231 229 226 223 224 225 221 224 226 230 228 220 225 230 227 232 235 237
196 198 211 147 204 142 214 245 122 144 188 185 182 173 190 201 205 213 212 214 214 214 213 213 210 212 215 220 223 228 233 233 236 240 230 235 232 233 231 234 236 240 241 243 242 238 235 243 246
183 216 202 203 177 202 196 235 144 160 190 184 174 176 184 191 206 205 221 225 223 221 218 217 215 213 214 219 222 230 237 241 240 238 238 247 250 251 246 242 243 246 249 247 247 248 255 253 257
196 206 198 188 119 211 220 240 213 175 225 217 228 219 227 203 122 250 239 240 228 226 223 221 218 215 215 219 216 225 230 240 244 243 248 260 262 259 256 255 250 244 249 253 255 259 257 261 262
176 193 188 97 139 206 206 241 233 171 228 246 274 254 242 185 146 96 103 224 230 224 220 223 221 217 215 229 227 221 229 238 248 258 261 261 260 262 262 261 261 261 254 262 262 255 256 252 254
189 194 179 177 147 169 241 243 187 169 154 160 138 220 196 142 128 100 76 68 81 203 211 213 214 214 214 214 228 230 228 227 240 248 262 263 265 269 269 268 266 268 267 265 270 263 255 248 258
185 166 147 141 172 205 208 242 180 168 188 170 141 153 137 130 109 94 82 69 64 65 123 191 193 204 209 211 214 223 230 241 250 257 270 273 275 273 273 274 273 273 271 271 274 274 264 257 250
144 150 138 153 185 218 193 249 142 167 198 180 146 123 127 106 109 97 84 78 70 69 78 95 119 141 174 193 214 224 239 249 267 273 280 282 282 280 275 279 277 275 275 275 275 273 265 262 254
138 118 98 113 173 238 214 228 207 176 203 164 145 134 132 119 105 99 90 87 80 76 78 85 91 90 97 117 147 179 219 260 283 293 294 295 287 288 286 288 279 280 278 278 278 278 272 265 262
169 157 150 195 196 233 54 216 242 126 166 175 156 145 142 132 117 104 95 85 80 79 80 82 86 84 85 86 84 81 84 78 58 14 354 339 335 330 323 315 305 295 288 283 282 284 284 276 269
192 186 170 188 195 188 87 229 217 124 156 144 143 142 137 129 122 106 99 95 88 82 80 80 79 79 77 77 75 70 71 68 59 45 33 22 8 350 331 329 319 311 305 300 298 290 289 284 282
179 201 72 105 18 161 185 226 181 164 161 154 153 155 150 141 132 118 107 97 92 86 81 81 79 74 72 72 71 67 63 61 53 49 45 29 18 7 359 350 340 330 320 311 304 297 296 292 287
215 146 154 216 162 215 188 240 241 185 178 172 169 169 157 147 140 130 117 109 101 94 90 86 82 77 72 70 70 67 62 56 51 41 33 23 13 4 1 355 349 343 337 329 319 311 306 297 292
162 186 212 225 235 214 187 236 337 190 184 179 176 171 163 161 151 139 130 120 108 99 92 86 81 77 70 67 65 62 56 49 42 34 25 18 9 1 356 351 346 341 336 332 325 319 313 304 298
262 217 196 202 193 290 44 255 333 208 185 179 173 164 167 164 154 146 142 132 122 108 97 88 80 76 70 69 63 57 48 41 33 24 15 7 2 356 350 345 341 337 333 330 327 322 316 310 304